Wind_Speed
8 6 4 4 3 1 2 3 4 6 8 9 9 8 8 10 10 8 6 7 6 10 14 12 9 9 11 14 14 13 12 13 14 15 16 17 17 16 18 19 17 16 16 15 14 14 14 15 16 16 17 18 18 19 19 19 18 18 18 18 18 16 14 13 12 12 11 10 12 13 14 14 13 13 15 17 17 15 14 14 15 14 14 15 16 18
10 8 7 5 3 0 2 3 5 7 9 10 11 9 7 9 10 8 6 6 7 10 14 12 10 9 9 12 13 12 12 11 12 14 16 17 18 19 21 20 19 17 15 14 14 14 14 14 15 16 17 17 18 18 18 18 18 19 19 18 19 19 17 16 16 15 14 12 12 13 13 13 13 13 13 13 12 11 12 12 14 14 13 14 15 16
12 11 8 4 3 1 1 3 5 6 9 10 10 7 5 9 10 8 6 6 8 11 14 14 12 9 9 11 11 10 11 11 11 13 15 17 18 20 21 20 19 17 15 15 14 15 15 14 14 15 16 16 16 16 16 16 17 18 18 18 19 19 18 18 18 17 16 14 12 12 12 12 13 14 13 12 10 10 11 12 13 14 13 14 15 15
14 13 9 4 3 3 1 3 5 6 8 10 7 2 5 11 11 9 7 7 9 11 14 15 13 9 9 9 9 9 11 11 10 12 13 15 17 19 20 19 18 17 16 15 14 15 16 16 16 16 16 16 15 15 15 15 16 16 17 18 18 18 18 19 19 18 17 14 12 11 10 10 11 12 13 12 10 10 10 11 12 13 14 14 15 15
15 11 7 6 4 3 1 4 5 5 6 11 9 5 9 11 11 10 9 8 10 11 12 17 17 10 6 7 7 7 10 11 11 12 12 14 16 19 19 18 18 18 17 16 15 16 17 17 17 17 17 16 15 15 14 15 15 16 16 17 18 18 19 20 19 19 18 13 10 10 9 9 10 11 12 12 11 9 8 9 10 11 12 12 12 12
16 10 6 7 5 3 2 5 6 2 1 10 12 9 11 12 11 12 11 9 12 12 11 14 16 11 6 5 7 8 10 11 11 12 13 13 15 18 19 18 17 17 17 17 16 16 17 18 18 17 17 17 16 15 15 15 15 15 16 17 17 18 19 19 19 19 18 12 7 8 9 9 10 10 11 12 12 10 7 7 8 8 9 10 9 9
15 9 7 8 6 5 4 5 6 2 1 8 11 10 12 13 13 14 12 11 13 14 12 12 12 10 7 5 7 9 10 11 12 13 13 13 15 17 17 17 18 18 18 17 17 16 17 17 17 17 17 17 16 16 15 15 15 15 16 16 17 17 17 17 18 19 18 12 6 6 7 8 10 10 10 10 10 9 7 6 7 7 8 8 7 8
14 10 8 8 7 6 4 6 7 2 2 8 10 9 11 14 15 15 14 13 14 14 11 8 10 12 10 7 9 11 11 12 13 13 13 14 15 17 17 17 19 19 18 17 16 15 16 17 17 18 18 18 18 17 16 16 16 16 16 16 16 16 15 16 17 17 17 12 7 6 7 8 8 9 9 8 8 7 6 6 7 7 7 6 6 7
16 13 11 10 8 7 7 7 6 4 4 8 9 9 12 14 16 16 16 15 13 11 9 8 9 11 11 12 12 12 12 13 13 13 13 14 16 18 17 18 20 20 18 17 16 16 17 18 19 19 19 20 20 19 18 17 16 16 16 16 15 15 14 14 15 16 15 12 8 7 8 8 8 8 8 8 8 7 6 6 7 7 7 7 7 7
16 13 11 11 11 10 9 6 5 5 6 8 9 10 13 14 16 17 17 14 9 7 9 9 8 8 12 15 13 12 13 13 13 13 13 15 17 18 18 19 20 19 18 17 17 17 19 20 20 21 21 21 21 20 19 18 17 16 16 16 15 14 13 13 14 15 14 12 10 8 8 8 8 9 9 9 8 8 8 8 9 9 10 10 10 10
12 12 13 13 12 11 7 5 6 6 6 8 10 12 13 13 14 15 13 10 7 8 8 7 8 10 12 15 14 12 13 14 13 13 14 16 18 18 19 20 20 19 19 19 19 19 21 22 22 22 21 21 20 19 19 18 17 16 16 16 15 14 13 13 13 14 13 12 10 9 8 8 9 10 11 11 11 11 11 11 12 12 12 12 12 12
12 12 13 14 14 11 7 6 7 6 6 8 9 12 13 12 13 12 11 9 7 10 9 7 9 11 12 15 15 14 15 15 14 14 16 17 18 18 19 19 20 20 20 21 21 21 22 23 23 22 21 20 19 18 18 18 17 16 16 16 15 14 13 13 13 14 14 13 11 11 10 9 10 13 15 15 16 15 14 14 14 14 15 15 15 15
15 16 16 15 14 10 8 7 6 6 7 7 9 11 10 11 12 11 13 13 11 12 12 9 11 13 14 16 16 14 14 14 16 15 15 17 17 18 19 19 20 21 21 22 22 22 22 23 23 22 21 20 19 18 18 19 18 17 17 16 15 15 14 14 14 14 15 15 14 12 12 11 12 15 18 18 18 17 16 16 16 16 16 17 17 17
19 20 18 15 13 10 8 7 7 8 8 7 8 10 9 10 12 10 12 13 13 15 14 11 13 16 16 15 13 13 14 14 15 14 14 16 17 18 19 20 21 21 21 22 22 23 23 23 23 22 21 20 19 19 19 20 19 19 18 17 17 17 17 17 16 16 16 16 16 15 14 15 17 19 20 20 19 18 17 17 17 17 17 17 17 18
20 18 17 17 15 11 9 8 9 9 9 8 9 9 9 11 12 10 11 12 12 14 14 11 12 14 15 14 12 13 13 13 14 14 15 16 18 19 19 20 21 21 21 22 23 24 24 23 22 22 21 20 19 19 20 20 21 20 20 19 19 19 19 19 19 18 17 17 17 17 17 18 19 20 20 20 20 20 19 19 19 19 19 19 19 19
23 19 19 17 14 12 10 11 11 8 8 11 11 10 11 12 13 12 11 11 10 11 12 11 10 11 12 13 13 14 14 14 15 16 17 18 20 20 20 21 21 22 22 23 24 24 24 24 23 22 22 22 21 21 21 21 22 22 21 21 21 21 21 21 20 20 19 19 18 18 19 19 20 20 21 21 22 22 22 22 21 21 21 21 21 20
21 20 19 14 14 14 12 12 12 8 9 12 11 11 13 13 15 14 13 13 11 10 12 11 10 11 12 11 11 13 14 15 17 17 18 20 22 21 21 22 22 23 24 25 24 24 24 24 24 24 24 23 23 23 23 23 23 23 22 22 22 22 22 21 21 20 20 19 19 20 20 21 21 22 22 22 23 23 24 23 23 23 22 22 21 21
20 19 19 15 15 15 13 13 13 13 13 12 12 15 16 15 16 17 15 14 14 14 14 13 11 12 15 12 9 10 13 15 17 19 20 21 21 21 21 22 23 24 24 25 24 24 25 25 25 25 25 25 25 24 24 24 24 24 23 23 23 22 22 22 21 20 20 20 20 21 21 21 22 22 22 23 23 23 24 24 24 24 23 22 21 21
21 18 17 16 14 15 15 13 12 16 17 14 15 18 17 14 15 16 15 13 14 15 15 15 14 14 17 15 10 11 14 16 18 19 20 21 21 20 21 22 23 23 24 25 25 26 27 27 26 26 26 26 26 25 25 25 26 25 25 24 23 23 23 22 22 22 22 22 22 22 22 22 23 23 23 23 23 23 24 24 24 24 24 23 23 22
20 17 14 16 15 13 14 13 11 15 17 14 16 18 17 16 14 15 16 15 15 16 16 16 16 15 16 15 13 15 17 18 19 20 20 20 20 21 21 22 23 23 24 25 27 28 28 28 28 28 27 27 26 26 26 26 26 27 26 26 24 23 23 23 23 23 23 23 23 23 23 23 23 24 23 24 24 24 24 24 25 25 25 25 25 24
20 18 13 13 13 10 13 15 13 14 15 14 14 15 17 17 16 16 17 17 17 17 17 17 16 17 18 16 16 18 18 19 20 20 20 20 21 22 22 23 24 24 25 27 28 29 29 29 29 28 28 27 27 27 27 26 27 27 27 26 25 25 24 24 24 24 25 25 25 25 25 25 25 24 24 24 24 24 25 25 25 26 25 25 25 26
18 18 13 11 11 12 16 16 14 14 15 14 13 13 14 16 17 17 17 18 20 19 18 18 19 21 20 18 16 17 18 19 20 19 20 21 22 23 23 24 24 25 26 28 29 29 30 30 30 29 29 29 28 28 28 28 28 27 26 26 25 25 25 26 26 27 27 28 28 28 28 28 27 27 26 26 26 26 26 27 27 27 27 27 26 26
16 17 16 13 14 16 16 14 13 13 13 13 13 14 15 17 18 18 17 19 20 21 21 21 22 23 20 16 16 16 17 19 20 20 21 22 23 23 24 25 25 26 28 30 30 30 31 31 31 30 30 30 30 30 29 29 29 28 27 26 26 26 27 28 28 29 30 30 31 31 32 32 32 31 30 30 30 29 29 29 29 29 29 30 29 29
15 15 16 17 17 16 13 12 12 11 10 12 14 15 17 18 19 19 20 22 20 20 21 19 20 22 19 16 17 17 19 20 21 23 23 24 25 25 25 25 26 28 30 30 31 32 33 33 33 32 32 33 33 32 31 31 30 29 28 28 28 28 29 30 31 32 33 33 34 34 35 35 36 36 35 34 34 34 34 33 33 33 32 32 32 32
14 15 16 16 15 14 13 13 13 12 11 13 16 18 19 19 19 19 20 21 19 20 20 18 19 21 19 18 19 20 22 23 24 25 26 26 27 26 26 27 28 30 30 30 31 32 33 34 34 34 34 35 35 34 33 32 31 30 29 30 30 31 31 32 33 34 35 36 36 37 37 38 38 39 39 38 38 37 37 37 37 37 37 36 35 35
13 14 14 14 13 12 12 12 12 14 15 16 17 20 20 19 19 18 19 20 19 19 19 19 20 21 21 21 23 24 26 27 27 28 28 28 28 27 28 29 30 30 29 30 31 33 34 35 35 35 36 36 36 35 33 32 31 30 31 32 33 34 35 35 36 36 37 37 38 38 38 39 40 40 41 41 40 39 39 40 40 40 40 39 38 38
12 13 13 12 12 13 13 12 13 16 17 19 20 20 20 18 17 17 18 19 20 20 21 21 22 24 25 25 27 28 29 30 32 32 32 31 30 29 29 29 30 29 29 30 32 34 35 35 35 36 37 36 36 35 34 34 33 33 33 35 36 37 38 38 38 38 38 38 38 38 39 40 41 41 41 42 42 41 41 41 42 42 42 41 40 40
13 14 13 12 13 14 14 14 15 17 18 20 21 20 20 19 18 18 18 19 21 22 22 22 24 27 29 29 30 32 32 33 34 34 34 33 31 30 28 28 28 29 29 31 33 35 36 36 36 37 37 37 36 36 36 36 35 36 37 38 39 40 40 40 40 40 40 40 40 40 41 41 42 42 42 42 42 42 42 43 43 42 42 42 42 41
14 15 12 12 14 15 15 16 17 19 20 21 21 21 20 19 19 19 19 21 22 22 23 24 26 29 30 30 31 31 30 30 31 30 30 30 30 30 28 25 26 28 30 32 34 35 36 36 37 37 37 37 37 37 37 37 38 39 41 42 42 42 43 43 43 43 43 43 43 43 43 43 43 44 43 43 43 43 43 43 43 42 42 42 43 43
15 15 12 13 16 16 18 19 20 21 22 22 22 22 20 19 19 19 20 22 23 24 25 25 26 27 29 30 30 28 26 27 27 26 25 25 26 26 25 24 26 29 31 33 34 35 35 36 35 36 37 38 38 38 39 40 42 43 44 44 44 44 45 45 46 46 45 45 45 44 45 45 45 45 44 44 44 44 44 44 44 43 43 43 43 43
16 15 14 15 18 19 19 20 22 23 24 24 23 21 20 20 20 21 21 22 23 24 24 25 25 26 28 30 29 26 26 27 27 25 24 23 22 22 25 29 31 32 31 32 34 34 35 36 36 37 38 39 40 41 42 43 44 44 45 45 44 45 45 45 46 46 46 46 46 45 45 45 45 45 44 44 44 44 44 44 44 44 43 43 43 44
16 16 16 17 20 23 21 21 24 24 24 25 22 19 20 21 21 22 22 22 23 23 24 24 25 25 28 29 26 24 26 27 27 27 26 25 25 26 28 31 32 33 33 34 36 36 37 38 39 39 40 41 42 43 43 43 43 43 44 44 44 45 45 45 46 46 46 46 46 46 45 45 45 44 44 44 44 44 43 43 44 44 43 43 44 44
16 17 18 17 21 25 23 21 23 23 23 24 21 18 20 22 22 22 22 22 23 23 23 23 24 26 28 28 25 24 26 27 28 29 29 28 29 29 30 31 32 34 36 37 38 39 40 41 41 42 42 43 43 43 43 43 43 43 43 44 44 44 45 45 45 45 46 46 46 46 45 45 45 44 44 44 44 44 43 43 43 44 43 43 43 43
18 20 20 19 22 26 24 21 21 20 20 22 22 21 22 22 22 22 22 22 22 22 22 23 25 26 28 28 28 27 28 29 29 29 29 30 30 31 31 32 34 36 37 38 39 40 41 42 42 42 42 42 42 42 42 43 43 43 43 43 44 44 44 44 44 45 45 46 46 46 46 45 45 44 44 43 43 43 43 43 44 44 44 44 44 44
21 22 23 22 24 26 23 20 19 20 20 21 22 23 23 23 23 23 22 22 22 22 22 23 24 26 27 28 30 31 31 30 30 30 31 32 32 32 33 34 35 37 38 38 39 40 40 41 41 41 41 41 42 42 42 43 43 44 44 44 44 44 44 44 44 45 45 45 45 46 45 45 45 44 44 43 43 43 43 44 44 44 45 45 45 46
24 24 25 25 24 24 23 20 19 21 22 22 23 24 23 23 23 22 21 22 23 23 24 24 25 26 27 28 29 30 30 31 32 33 33 33 33 34 34 35 36 37 38 39 39 40 40 40 40 41 41 42 43 43 44 44 44 45 45 45 45 45 45 45 45 45 45 45 45 45 45 45 45 44 44 44 44 44 43 44 44 44 45 46 46 47
25 25 24 23 22 21 21 21 20 21 22 22 22 23 22 22 23 23 22 23 25 25 25 25 25 26 27 28 29 29 30 31 33 34 35 34 35 35 36 37 38 38 39 40 40 41 41 41 42 42 43 44 44 45 45 45 45 46 46 46 46 46 46 45 45 45 45 45 45 45 45 45 45 45 45 45 44 44 43 43 43 44 45 45 46 46
20 20 20 20 20 20 21 21 21 22 22 21 21 22 23 23 23 23 24 24 24 25 24 24 25 26 27 29 29 30 31 31 32 34 35 36 36 37 38 39 39 40 40 41 42 42 43 43 44 44 45 45 45 45 45 46 46 46 46 46 46 45 45 45 45 44 44 44 44 45 45 45 44 44 44 44 43 43 42 42 42 42 43 44 45 45
16 17 18 19 20 20 20 20 20 22 22 22 23 24 24 24 23 23 25 24 24 24 24 25 27 28 29 29 30 31 32 31 31 33 36 37 37 38 39 40 41 41 42 42 43 44 44 45 45 45 45 45 45 45 45 46 46 46 46 45 45 45 44 44 43 43 43 43 43 43 43 43 42 42 42 42 41 41 42 42 42 42 42 43 43 43
15 17 18 19 20 20 20 20 21 22 22 23 24 25 24 23 23 23 25 25 25 26 26 27 29 29 30 30 30 31 31 31 33 35 36 37 39 40 40 41 42 43 43 44 44 45 45 45 45 45 45 45 45 45 45 45 45 45 45 44 44 43 43 42 42 41 41 40 40 39 39 39 39 39 39 39 40 41 42 42 42 42 42 41 41 42
16 17 17 18 19 20 20 21 23 23 22 22 23 23 23 24 24 24 25 26 27 28 28 29 29 30 30 30 31 31 32 33 35 36 38 39 40 40 41 41 42 42 43 44 44 44 44 45 45 45 45 45 45 44 44 43 44 43 43 42 42 41 41 40 39 39 38 37 36 36 36 36 36 37 37 38 39 40 40 40 40 40 39 39 39 39
16 17 18 18 19 20 20 21 22 22 20 21 22 22 23 24 26 26 26 27 28 29 29 30 30 30 30 31 32 33 34 35 37 38 39 40 41 41 42 42 43 43 43 43 43 43 44 44 45 45 44 44 43 43 42 42 41 41 41 40 39 38 38 37 36 36 35 35 34 34 33 33 33 33 34 34 35 35 36 35 35 35 35 35 35 36
16 17 18 19 19 19 19 19 20 20 20 21 23 23 24 25 26 27 28 28 29 30 30 30 31 31 32 33 34 35 36 37 38 39 40 41 42 42 43 43 43 43 43 44 44 44 44 44 44 44 43 42 41 40 40 39 39 38 37 37 36 36 35 35 34 33 33 32 31 30 29 29 29 29 29 29 30 31 31 31 31 31 31 32 32 33
16 17 17 17 16 17 17 18 19 20 21 22 23 25 25 26 27 28 28 29 30 30 30 31 32 32 34 35 36 37 38 39 40 41 41 42 42 42 43 43 43 44 44 45 45 44 44 43 42 41 40 38 37 37 36 36 35 35 34 34 34 33 32 32 31 30 29 28 27 27 27 28 28 28 28 28 28 29 29 29 29 29 29 30 30 30
14 14 14 15 15 16 18 19 21 22 23 24 25 25 26 27 28 28 29 29 30 30 31 32 33 34 35 36 37 38 39 40 40 41 42 42 42 43 43 44 44 44 44 44 43 42 41 39 38 37 35 35 34 34 33 33 32 32 31 31 31 30 29 29 28 27 26 26 27 27 28 28 28 28 28 28 28 28 28 28 28 28 28 28 28 28
11 12 13 15 17 18 20 21 22 23 24 25 26 26 27 27 28 28 28 29 30 31 32 33 34 35 36 37 38 39 39 40 40 41 42 43 43 44 44 43 43 42 42 40 38 37 36 35 34 33 33 33 32 31 31 31 31 31 31 31 30 29 29 28 27 26 26 27 28 28 28 27 27 27 27 27 27 27 27 27 27 27 27 27 28 28
11 13 15 17 18 19 21 21 22 24 25 26 26 27 27 27 27 27 28 29 30 31 33 34 35 36 36 37 38 39 40 41 41 42 42 43 43 42 41 40 39 38 36 35 34 33 33 33 32 32 31 31 30 29 29 30 31 31 31 31 30 29 28 27 27 26 27 27 27 27 27 26 26 26 26 26 26 27 26 26 26 26 26 26 26 27
14 15 17 18 19 20 21 22 23 24 25 26 26 26 26 27 27 28 29 30 31 32 33 34 35 36 37 38 39 40 41 41 41 41 41 41 40 38 37 35 34 33 33 32 32 32 32 31 30 29 29 28 27 27 28 28 29 29 29 28 27 26 26 26 26 27 27 26 26 26 27 27 26 26 26 26 25 25 25 26 26 25 25 25 25 26
16 16 17 18 19 21 22 23 24 24 25 25 25 25 26 27 28 29 30 31 32 33 33 34 35 36 38 39 40 40 41 40 39 39 38 37 35 33 32 32 32 32 32 31 31 30 29 28 27 26 26 25 25 25 26 27 27 27 27 25 24 23 24 24 25 25 26 26 26 26 27 27 26 26 25 25 25 25 25 25 26 26 25 25 25 25
16 17 18 19 20 21 22 22 23 24 24 24 25 26 27 27 28 29 30 31 32 33 33 35 36 38 39 40 40 40 39 38 36 35 34 32 31 30 30 31 31 30 30 29 29 27 26 25 24 23 23 23 23 24 26 27 26 26 25 24 23 23 22 23 24 25 25 26 26 26 26 26 26 26 25 25 25 25 26 26 26 26 26 25 25 25
17 18 19 20 21 21 22 22 22 23 24 25 25 26 27 28 29 30 30 31 32 33 34 36 37 38 39 39 39 38 36 34 33 31 30 29 29 29 29 29 29 28 27 26 25 24 23 22 22 22 22 22 23 25 26 26 25 25 24 23 23 22 22 22 23 24 24 24 25 25 25 25 25 25 25 25 25 25 26 27 27 27 26 26 25 24
Wind_Direction
206 213 203 184 208 240 20 356 348 335 327 327 325 319 299 288 299 320 337 338 341 329 333 350 349 347 357 360 7 11 12 13 17 24 27 26 18 13 20 22 27 33 32 33 33 31 28 24 22 20 19 21 24 27 25 23 23 23 21 18 16 11 4 355 348 348 347 346 345 344 344 343 335 321 308 305 303 300 302 302 300 295 292 294 294 290
204 211 220 199 191 294 357 333 336 323 319 326 327 327 306 283 291 308 322 327 325 328 335 336 327 327 335 346 359 5 7 7 13 21 23 22 16 11 13 10 14 22 21 21 23 21 20 19 17 15 14 15 18 21 20 17 17 19 16 12 9 6 0 354 348 344 342 341 344 346 349 351 347 343 335 326 320 317 314 309 302 298 296 295 294 295
208 214 220 190 178 222 301 324 329 318 317 317 319 340 321 281 288 296 303 321 317 322 333 329 317 313 315 332 350 357 1 1 8 20 20 16 12 9 9 6 6 8 11 14 14 14 14 13 12 12 11 11 13 15 14 12 11 13 11 9 7 2 358 355 353 349 344 340 340 343 349 353 351 351 353 348 342 337 327 319 312 310 312 311 308 307
203 217 219 176 182 218 264 313 320 330 326 311 307 328 276 271 280 287 291 309 308 316 328 317 304 298 297 317 339 345 353 357 4 17 16 9 6 6 6 5 2 1 3 6 6 8 8 6 6 7 7 8 8 9 7 4 3 3 4 4 2 358 356 356 356 354 349 341 337 339 342 348 351 351 355 356 353 350 341 335 330 329 333 329 324 321
203 221 212 169 185 217 257 301 313 347 329 305 297 258 261 271 275 287 296 296 292 302 318 309 306 314 306 312 331 335 342 349 357 9 10 4 0 2 4 2 1 360 359 358 358 358 359 359 358 358 1 3 4 4 2 358 355 353 354 356 355 354 354 355 355 354 351 345 337 337 337 341 348 348 350 352 352 351 347 346 345 346 348 344 339 337
217 231 204 179 193 216 241 279 297 5 261 288 296 281 277 286 286 292 298 293 289 295 312 312 313 327 326 314 326 326 332 337 343 355 1 358 353 357 1 358 355 355 354 354 353 352 354 355 354 353 354 356 358 358 357 355 351 348 346 348 349 351 353 353 353 351 350 347 335 334 338 340 345 349 352 354 356 357 355 351 351 356 359 358 355 351
225 232 194 184 200 219 253 277 285 336 160 264 285 290 287 291 295 298 298 296 294 299 314 316 302 303 310 316 319 319 323 326 330 342 350 349 345 351 356 351 348 348 347 349 352 352 352 352 351 351 349 349 350 350 350 349 347 344 343 343 345 347 349 349 349 349 348 346 335 328 336 339 342 350 355 359 4 9 7 356 351 355 358 357 354 349
225 222 194 187 201 211 245 268 274 299 205 251 276 294 289 291 297 299 302 304 301 300 306 302 289 299 313 316 311 314 318 317 321 332 339 338 336 343 349 344 340 341 341 344 350 351 350 348 346 344 343 343 343 342 342 341 340 340 339 340 340 340 342 343 345 347 348 345 335 325 331 335 338 346 353 358 7 13 8 356 350 350 349 346 343 344
220 215 197 193 205 213 228 245 269 292 256 259 283 295 288 291 294 293 300 306 305 306 302 289 291 303 307 308 309 312 313 311 314 324 330 329 330 337 342 338 335 337 338 341 345 347 346 343 340 338 338 337 335 334 333 334 334 335 335 336 335 333 334 336 338 343 346 343 331 321 325 331 337 340 344 347 352 356 350 342 337 336 336 337 338 339
219 210 197 200 209 221 234 247 269 284 278 281 297 300 294 295 293 292 299 302 299 301 293 286 293 293 291 300 307 308 307 308 311 318 322 322 327 334 336 333 332 335 338 339 342 344 342 339 336 333 333 332 331 329 328 330 331 331 332 332 330 327 326 329 331 335 341 338 327 321 325 333 340 339 337 335 334 332 329 326 326 328 331 332 333 332
216 199 198 208 218 228 241 255 266 280 290 293 301 306 306 303 299 299 301 298 294 293 289 283 293 292 287 296 308 312 310 307 309 315 317 319 326 331 331 330 330 333 337 337 338 340 339 336 334 331 329 329 329 328 328 329 329 330 331 331 330 327 323 324 325 327 333 332 323 318 323 333 339 340 339 337 332 326 321 318 318 319 321 322 323 323
210 201 206 214 222 231 240 246 262 281 289 297 308 312 313 310 309 311 303 300 301 296 301 304 297 292 286 296 312 317 311 306 308 314 315 319 325 327 327 326 326 329 331 332 333 336 337 335 332 330 327 326 326 328 328 329 329 329 330 331 332 330 326 324 322 322 325 325 319 311 311 319 328 333 336 336 333 328 321 316 312 310 309 310 311 311
207 209 213 219 223 225 233 246 267 284 282 292 306 310 315 309 309 312 301 303 307 294 298 304 297 295 294 302 315 314 307 303 306 311 314 318 324 325 324 322 322 325 326 328 330 333 335 333 331 329 325 324 324 325 327 328 328 327 327 329 330 330 328 326 325 323 320 318 316 309 304 305 311 319 323 324 324 321 317 313 309 307 306 306 305 304
209 218 219 217 221 222 226 238 253 268 272 279 294 303 308 300 305 310 298 302 308 299 302 303 293 295 298 304 314 311 306 303 302 306 312 318 323 324 322 320 322 324 326 328 331 332 331 328 327 326 323 322 321 322 323 324 324 323 322 324 325 325 326 325 324 322 318 314 311 307 301 298 301 306 310 311 311 312 310 308 306 305 305 304 303 303
200 224 235 222 217 224 229 230 234 248 268 277 281 288 292 291 298 304 297 301 303 299 303 300 289 293 298 302 306 306 306 303 300 302 309 316 321 322 321 320 322 324 325 328 330 330 327 324 322 321 320 319 318 318 319 319 319 318 317 317 317 318 318 318 317 316 314 312 308 305 300 297 298 300 303 305 307 308 307 305 304 303 303 303 302 302
193 212 234 225 216 224 229 234 239 244 265 277 285 286 286 291 295 296 293 293 296 301 302 301 303 301 295 296 298 297 298 299 299 300 305 311 315 318 318 318 319 320 322 325 328 328 324 320 319 318 318 317 316 317 317 316 315 313 312 311 311 312 312 312 312 310 309 307 304 302 299 297 297 299 301 304 305 305 305 304 303 303 303 303 302 302
198 215 231 222 217 227 226 234 243 237 248 271 289 285 281 289 291 291 293 293 296 302 296 300 320 313 296 291 292 293 295 297 298 300 302 307 311 314 315 315 316 318 319 322 324 324 321 317 317 317 317 316 316 317 316 316 315 313 311 310 310 311 312 312 311 309 307 305 302 300 298 297 296 297 299 300 301 301 301 301 301 302 303 304 303 302
200 220 233 224 220 230 231 235 240 237 247 269 282 280 287 296 287 280 287 297 301 303 297 297 307 303 296 292 291 299 303 302 302 302 303 306 309 311 312 312 314 316 318 320 321 320 317 314 314 315 316 316 315 316 316 316 316 314 313 312 312 312 313 312 311 309 308 305 304 302 300 299 298 298 299 299 299 298 298 299 300 302 303 304 303 301
203 213 231 232 227 233 238 240 243 244 251 259 266 275 286 293 288 283 287 294 296 300 301 300 302 300 297 297 300 305 306 303 303 302 303 306 308 309 309 309 311 314 317 318 319 318 314 311 312 313 315 316 315 315 315 315 315 315 314 313 312 312 312 312 311 309 308 307 306 305 304 303 302 301 301 301 300 299 299 300 301 302 303 303 302 300
209 208 223 234 235 242 247 246 245 251 258 260 266 276 279 278 282 284 286 288 290 296 298 297 301 297 291 298 306 304 302 301 300 300 302 304 306 307 307 306 308 312 314 317 318 316 312 309 309 312 313 314 315 314 313 313 313 313 312 311 312 312 311 311 310 310 309 308 307 306 304 304 303 303 302 302 302 301 301 302 302 302 302 302 301 300
212 211 217 231 237 245 249 247 246 257 270 273 276 284 285 285 287 283 287 290 288 293 296 294 295 289 287 299 303 298 298 299 298 299 301 301 303 305 305 304 306 309 313 315 316 314 310 307 306 309 311 312 313 312 310 310 311 311 310 309 310 312 313 313 312 311 310 309 308 306 305 304 303 303 303 303 303 302 303 303 303 302 302 301 300 300
215 215 221 234 236 236 246 254 260 269 276 278 280 285 288 293 294 293 296 295 292 293 292 290 291 287 290 298 296 292 295 296 297 298 297 298 300 301 301 301 303 307 311 312 313 310 306 304 305 307 309 310 310 310 310 310 309 309 308 306 306 309 311 312 312 311 311 310 309 308 306 305 304 303 303 303 302 302 302 302 302 302 301 301 299 298
213 215 221 230 236 244 255 264 269 271 276 279 283 293 300 299 296 294 292 289 292 294 291 292 293 289 290 292 291 293 294 293 294 293 292 293 293 294 296 296 297 303 307 309 309 306 303 304 305 305 306 307 308 309 310 310 308 307 306 305 305 306 307 308 309 309 309 308 308 306 305 304 303 302 301 301 300 300 299 299 299 299 299 299 299 297
215 219 225 233 242 252 258 257 259 261 270 287 298 308 310 304 298 294 287 284 285 286 288 292 290 287 290 291 290 293 293 292 291 289 289 289 287 288 291 291 293 300 304 305 304 302 302 303 303 302 303 304 304 306 308 308 307 304 303 303 303 303 305 306 306 306 306 305 304 303 302 301 300 299 299 298 299 299 299 299 298 297 296 296 296 296
219 224 232 241 248 256 255 252 258 264 274 297 313 317 314 306 300 296 291 288 284 278 282 284 277 278 286 290 292 292 291 290 288 286 285 283 282 284 287 289 292 296 299 299 297 297 300 301 300 300 302 302 302 304 305 304 303 302 301 301 301 302 302 303 303 303 302 301 299 298 297 297 296 296 296 296 297 297 298 298 298 297 296 295 294 294
219 226 238 249 252 256 265 273 285 294 301 311 317 319 316 309 302 299 296 293 286 282 287 287 282 284 290 292 293 291 289 287 284 282 280 279 279 280 283 288 291 292 293 291 289 291 297 299 299 300 302 302 302 303 303 302 301 301 301 302 302 302 301 300 299 298 298 297 295 294 293 292 292 292 292 293 293 293 294 295 294 293 293 292 292 291
225 228 239 254 262 268 281 296 304 307 308 309 311 315 315 311 306 304 301 296 295 299 300 294 290 292 292 291 289 287 285 283 281 278 275 273 272 273 278 283 284 283 282 283 285 291 297 299 300 301 301 301 302 302 302 302 301 301 302 302 302 301 300 299 298 297 296 295 293 291 290 290 290 290 291 290 290 290 290 290 290 289 288 287 287 286
233 235 238 253 268 278 287 295 299 300 301 303 305 309 311 311 309 305 302 298 298 300 296 291 291 291 290 287 284 283 284 285 286 285 282 277 271 270 273 276 275 275 277 282 287 293 297 298 299 299 300 301 301 301 302 301 301 301 301 302 301 299 298 297 295 294 293 292 290 289 289 289 289 289 289 288 288 287 287 287 287 286 285 285 284 283
241 245 250 262 270 278 285 289 293 297 299 299 300 304 307 308 304 300 297 294 291 288 284 284 286 286 287 287 285 287 291 292 292 290 288 287 283 278 275 273 275 279 282 287 291 294 296 297 298 299 299 299 300 301 302 301 300 300 300 300 299 298 297 295 293 292 291 290 290 290 290 289 289 289 288 287 287 286 286 286 286 285 284 284 283 282
253 256 265 274 277 281 285 290 293 296 296 296 298 301 303 300 296 292 288 285 284 283 283 284 284 284 285 284 282 285 286 285 284 283 285 291 292 284 275 275 284 290 290 291 294 296 297 298 298 299 298 298 299 299 299 298 298 297 297 297 296 295 294 293 292 292 291 291 290 290 290 289 289 289 289 289 288 287 287 287 286 286 285 284 283 282
260 266 272 278 282 282 284 289 293 293 293 294 295 298 297 294 290 287 285 284 284 284 285 286 285 284 282 280 281 284 284 284 287 290 294 297 293 281 275 280 289 295 296 296 296 295 295 295 296 296 296 296 296 295 294 294 293 293 293 293 292 291 291 291 291 291 291 291 290 289 289 289 288 288 288 288 288 287 287 286 286 285 285 284 283 282
263 272 278 284 287 285 285 290 291 292 293 292 292 295 295 291 289 287 287 286 286 287 287 287 286 285 285 285 288 292 293 293 295 297 299 297 290 283 282 285 289 293 295 296 295 294 293 293 294 294 295 294 294 293 293 292 292 291 291 291 290 290 290 290 290 290 290 289 289 289 288 288 288 287 287 286 286 286 285 285 285 284 283 283 283 282
271 278 280 287 291 289 290 291 289 290 293 291 291 293 291 290 291 291 291 291 290 290 289 288 288 289 290 291 293 295 295 295 296 298 298 295 291 289 289 289 290 291 293 294 293 293 293 294 295 295 295 295 294 294 293 293 292 291 290 290 289 289 290 289 289 289 289 289 289 288 288 287 287 286 286 285 285 285 284 284 284 283 282 282 281 281
279 281 283 290 295 294 293 292 288 289 289 289 293 295 293 294 296 296 296 296 294 293 292 291 290 291 293 295 297 299 299 298 299 299 297 294 293 292 292 291 291 291 291 292 292 293 293 294 295 295 295 294 294 293 293 292 292 291 291 290 290 290 289 289 289 288 288 288 288 288 288 287 287 286 285 285 284 284 284 283 283 283 282 282 281 280
282 285 288 293 295 294 293 291 288 287 286 289 295 296 297 299 299 299 300 297 295 295 294 294 294 295 295 296 298 300 302 302 301 299 297 296 295 294 293 292 291 291 291 292 292 293 293 294 295 294 294 294 294 293 293 293 293 293 293 293 292 292 291 290 290 289 289 288 288 288 288 288 287 287 286 285 284 283 283 283 282 282 281 281 280 279
283 287 289 290 291 291 290 289 286 286 289 293 295 295 296 298 299 300 299 297 296 297 297 297 297 297 297 298 299 300 301 302 301 298 296 296 295 295 295 294 294 294 295 295 296 296 296 296 296 295 295 295 295 296 296 296 295 295 295 295 294 294 293 292 292 291 290 290 289 289 289 289 288 288 287 286 285 284 284 283 283 282 282 281 281 280
281 284 284 284 285 285 285 286 286 287 290 292 291 292 295 297 298 299 297 296 297 297 298 298 298 298 298 299 299 300 300 300 298 296 296 297 297 298 298 298 298 299 299 299 299 298 298 298 297 297 298 298 298 298 298 297 297 296 296 295 295 294 294 293 293 292 292 291 290 290 289 289 288 288 287 287 286 285 284 283 283 284 284 283 283 282
275 276 277 279 280 280 280 282 284 285 286 287 287 290 294 296 297 297 296 295 296 296 297 298 298 298 299 299 300 300 299 299 297 296 297 299 300 300 300 301 301 300 300 300 299 299 300 300 300 300 300 299 299 299 298 297 296 296 295 295 294 293 293 292 292 291 290 290 289 289 288 288 288 287 286 285 285 284 283 283 284 284 284 284 284 284
268 269 272 275 276 277 277 278 280 282 285 286 287 290 294 295 296 296 296 295 295 296 298 299 299 299 299 299 299 298 298 297 297 297 299 300 300 301 301 301 301 301 300 300 301 301 302 301 301 300 299 299 298 297 296 296 295 295 294 293 292 292 291 290 290 289 288 288 288 287 287 287 286 286 285 285 284 284 284 284 285 285 285 284 284 284
266 268 271 272 273 276 277 277 279 283 285 286 289 292 294 294 294 294 294 295 297 299 300 301 300 300 299 299 298 298 298 298 298 299 300 301 301 301 301 301 301 301 301 301 301 301 301 300 299 298 298 297 296 296 295 295 294 293 293 292 291 290 290 289 289 288 288 288 287 287 287 287 286 286 285 285 285 285 286 286 286 286 285 285 283 282
267 270 272 273 274 277 279 280 282 284 285 287 290 292 293 293 294 294 294 297 300 301 301 301 300 300 300 300 300 300 300 300 300 300 300 301 301 300 300 300 301 301 301 300 300 299 298 298 297 297 297 297 296 296 296 295 294 293 293 292 292 292 292 291 291 291 291 290 290 290 289 289 288 288 288 288 288 288 288 288 289 288 287 286 284 283
270 273 274 275 276 278 280 280 282 283 285 287 290 291 293 294 295 296 298 300 301 302 301 301 301 301 302 302 302 302 302 302 302 301 301 301 301 301 302 302 301 301 300 299 299 298 298 298 298 298 299 299 299 298 298 297 296 296 296 296 296 295 295 295 295 295 295 294 294 293 293 292 291 291 291 291 291 292 292 292 292 291 290 290 288 287
272 274 276 277 279 280 279 279 280 284 287 289 290 292 294 296 297 300 302 303 303 303 303 303 304 304 304 304 304 304 304 304 304 304 304 304 304 304 303 303 302 301 300 300 301 301 301 301 301 302 302 302 302 301 301 300 300 300 300 299 298 298 298 298 298 298 298 298 297 297 296 296 295 295 295 294 295 295 295 294 294 294 294 293 292 291
272 274 277 278 280 280 281 281 284 288 291 292 294 296 298 300 302 303 304 304 304 304 304 305 305 306 306 306 306 306 306 306 306 305 305 304 304 303 303 302 302 303 303 303 304 304 304 304 305 305 306 306 305 304 304 304 303 302 301 301 301 301 301 301 301 301 301 301 301 301 301 301 300 299 298 298 297 297 297 296 296 296 297 297 297 297
272 274 277 280 282 283 285 288 291 293 295 297 299 300 302 303 303 304 303 303 303 304 305 305 306 306 307 307 307 307 307 306 306 305 305 304 304 303 304 304 305 305 305 306 306 306 307 307 308 308 308 308 308 307 307 306 306 304 303 303 304 304 304 304 303 303 304 306 307 307 306 305 303 302 301 300 299 298 298 298 298 298 299 300 300 299
273 278 282 285 287 289 290 293 295 297 298 300 301 302 302 303 303 303 303 303 304 305 306 306 307 307 308 307 307 306 306 305 305 305 305 305 305 305 306 307 307 306 307 307 308 309 310 311 311 311 310 310 310 310 310 310 309 307 306 304 304 303 303 304 304 305 307 308 309 309 307 306 305 303 302 301 301 301 301 300 299 299 299 300 300 300
280 284 286 288 290 292 294 296 297 298 299 300 301 301 302 302 302 303 304 305 305 306 306 306 307 307 306 306 306 306 306 306 306 306 306 306 307 307 308 308 307 308 309 310 311 312 312 312 312 312 312 313 314 315 315 315 314 312 309 306 303 302 301 303 304 306 307 308 308 308 307 306 305 304 303 302 302 303 303 301 300 300 300 301 300 300
287 288 290 291 293 294 296 297 298 298 299 299 300 301 302 302 303 304 304 304 305 305 305 306 306 306 306 306 306 306 307 307 307 308 308 308 309 309 309 310 311 312 313 313 313 312 312 312 313 314 315 317 318 319 320 321 322 322 320 316 311 306 304 304 305 305 306 307 307 308 308 308 307 306 306 305 305 305 305 304 303 303 304 304 303 301
290 291 292 293 294 295 297 298 298 298 299 300 301 301 302 302 303 303 303 304 304 304 305 306 306 307 307 307 308 308 308 309 310 311 310 311 311 312 312 313 314 314 313 312 311 311 311 313 315 317 318 319 320 322 323 324 325 326 327 325 321 316 312 310 308 308 309 310 311 311 312 311 310 310 309 308 307 308 307 306 305 306 307 307 305 303
293 294 295 295 297 297 297 297 298 298 299 300 301 301 301 301 302 302 303 303 304 305 306 308 309 309 309 310 310 311 312 312 312 312 312 313 314 315 315 315 314 313 313 312 312 312 314 317 319 320 320 320 321 322 323 323 324 325 326 326 324 322 319 316 314 314 314 315 315 315 314 314 313 312 311 310 310 309 308 307 306 306 306 306 305 304
295 296 297 298 298 297 297 298 298 299 299 300 300 300 301 302 302 303 304 305 306 308 310 311 311 312 312 312 312 313 313 313 313 313 314 316 317 316 316 315 315 316 316 315 315 317 319 321 321 321 320 319 320 321 323 324 325 327 327 326 325 324 323 322 320 319 318 318 318 317 316 315 314 312 311 310 309 309 308 307 306 306 305 305 304 304
Height
5956 5957 5958 5959 5960 5959 5959 5960 5960 5961 5961 5961 5962 5962 5962 5962 5961 5960 5960 5960 5959 5957 5955 5954 5954 5953 5952 5951 5951 5949 5948 5946 5945 5944 5943 5942 5940 5936 5935 5935 5933 5932 5932 5931 5930 5929 5927 5926 5925 5924 5922 5921 5920 5919 5918 5917 5916 5915 5914 5912 5911 5910 5909 5908 5907 5906 5906 5905 5903 5902 5901 5900 5898 5897 5897 5896 5896 5895 5895 5896 5895 5895 5895 5894 5894 5893
5956 5957 5957 5958 5958 5958 5959 5959 5959 5960 5960 5960 5961 5961 5961 5961 5960 5960 5960 5959 5959 5957 5956 5955 5954 5953 5952 5951 5951 5950 5948 5947 5945 5944 5943 5942 5940 5937 5936 5936 5934 5933 5933 5932 5931 5929 5928 5927 5925 5924 5923 5922 5921 5920 5918 5917 5916 5915 5914 5912 5911 5910 5908 5907 5906 5905 5905 5904 5903 5902 5900 5899 5897 5896 5895 5895 5895 5895 5894 5894 5894 5893 5893 5893 5892 5891
5956 5957 5957 5957 5958 5958 5959 5959 5959 5959 5960 5960 5960 5961 5962 5960 5959 5959 5959 5959 5958 5957 5956 5955 5954 5952 5952 5951 5951 5950 5948 5947 5946 5945 5944 5943 5941 5939 5938 5937 5936 5935 5934 5932 5931 5930 5928 5927 5926 5925 5924 5922 5921 5920 5919 5917 5916 5915 5914 5912 5911 5909 5908 5907 5906 5905 5904 5903 5902 5901 5900 5898 5897 5895 5894 5894 5894 5894 5894 5894 5894 5893 5893 5892 5891 5891
5956 5956 5956 5956 5957 5958 5958 5959 5959 5959 5959 5959 5960 5963 5963 5960 5959 5957 5957 5958 5958 5956 5956 5954 5952 5951 5951 5951 5950 5950 5949 5948 5947 5946 5945 5944 5942 5941 5940 5938 5937 5936 5934 5932 5931 5930 5928 5927 5926 5925 5924 5923 5921 5920 5919 5917 5916 5915 5914 5912 5911 5909 5908 5907 5906 5904 5903 5901 5901 5900 5899 5898 5897 5895 5894 5893 5894 5894 5894 5893 5893 5892 5892 5892 5891 5890
5955 5955 5955 5956 5957 5957 5958 5958 5958 5959 5961 5960 5958 5961 5960 5958 5958 5957 5956 5957 5956 5956 5955 5952 5949 5949 5950 5950 5949 5949 5948 5948 5947 5946 5945 5944 5943 5941 5940 5939 5937 5936 5934 5932 5931 5930 5928 5927 5926 5925 5924 5923 5921 5920 5919 5917 5916 5914 5913 5912 5910 5909 5907 5906 5905 5903 5902 5900 5899 5899 5898 5897 5897 5895 5894 5893 5893 5893 5893 5893 5892 5892 5891 5891 5890 5889
5953 5953 5954 5956 5956 5957 5958 5958 5958 5959 5962 5961 5957 5958 5958 5957 5957 5957 5956 5956 5955 5954 5953 5951 5950 5949 5950 5949 5949 5948 5948 5947 5946 5945 5945 5944 5943 5942 5940 5939 5937 5936 5934 5932 5931 5929 5928 5927 5925 5924 5923 5922 5921 5920 5918 5917 5915 5914 5913 5911 5910 5908 5906 5905 5903 5902 5900 5899 5898 5897 5897 5897 5896 5895 5893 5893 5892 5892 5892 5892 5892 5891 5891 5890 5889 5887
5951 5952 5954 5955 5956 5956 5957 5958 5957 5957 5960 5961 5957 5956 5957 5957 5957 5956 5956 5956 5954 5952 5952 5952 5951 5950 5949 5948 5949 5948 5947 5946 5946 5945 5944 5943 5942 5941 5940 5939 5937 5936 5934 5932 5931 5929 5928 5927 5925 5924 5923 5921 5920 5919 5918 5916 5915 5913 5912 5911 5909 5908 5906 5904 5902 5901 5900 5898 5898 5897 5896 5896 5896 5895 5894 5892 5892 5891 5891 5891 5891 5890 5889 5888 5887 5886
5951 5952 5954 5954 5955 5956 5957 5957 5956 5956 5958 5959 5956 5956 5956 5956 5956 5955 5954 5955 5953 5952 5952 5952 5950 5949 5948 5948 5948 5947 5946 5946 5945 5944 5943 5942 5942 5941 5940 5939 5937 5935 5933 5932 5930 5929 5928 5927 5925 5924 5922 5921 5919 5918 5917 5915 5914 5912 5911 5910 5908 5907 5905 5904 5902 5901 5899 5898 5897 5896 5896 5895 5895 5895 5894 5893 5892 5891 5890 5890 5889 5889 5888 5887 5886 5885
5950 5951 5952 5953 5954 5955 5956 5956 5955 5955 5956 5956 5955 5955 5955 5955 5954 5954 5954 5954 5953 5951 5951 5951 5950 5949 5948 5947 5947 5946 5945 5944 5944 5943 5942 5941 5940 5940 5939 5938 5936 5934 5932 5931 5930 5929 5928 5926 5925 5924 5922 5920 5918 5917 5916 5914 5913 5911 5910 5909 5907 5906 5904 5903 5901 5900 5899 5898 5897 5896 5895 5895 5894 5894 5893 5892 5891 5890 5890 5889 5888 5888 5887 5886 5885 5884
5949 5950 5951 5952 5953 5954 5954 5954 5954 5954 5954 5954 5954 5954 5954 5954 5954 5953 5953 5953 5952 5951 5951 5950 5949 5949 5947 5946 5946 5945 5943 5942 5942 5942 5941 5940 5939 5939 5938 5936 5934 5932 5930 5929 5928 5928 5927 5925 5924 5923 5921 5920 5918 5916 5914 5913 5912 5910 5909 5907 5906 5905 5903 5902 5901 5900 5898 5897 5896 5896 5895 5894 5893 5893 5892 5891 5890 5889 5889 5888 5887 5887 5886 5886 5885 5884
5947 5949 5950 5951 5951 5952 5952 5953 5953 5953 5953 5953 5954 5954 5953 5953 5952 5952 5952 5951 5951 5950 5949 5948 5948 5948 5947 5944 5943 5943 5942 5940 5941 5941 5940 5939 5938 5937 5936 5935 5933 5930 5929 5928 5927 5927 5926 5924 5923 5922 5920 5918 5917 5915 5913 5912 5910 5909 5908 5906 5905 5904 5903 5901 5900 5899 5898 5897 5896 5895 5894 5893 5893 5892 5891 5890 5889 5888 5887 5886 5886 5885 5885 5884 5884 5884
5947 5948 5949 5950 5950 5951 5951 5952 5952 5952 5953 5953 5953 5953 5952 5952 5951 5951 5950 5949 5950 5949 5947 5947 5948 5947 5946 5944 5942 5942 5941 5939 5939 5940 5939 5938 5937 5936 5935 5933 5931 5929 5927 5926 5926 5925 5924 5923 5922 5920 5919 5917 5916 5914 5912 5911 5909 5908 5907 5905 5904 5903 5902 5901 5899 5898 5897 5896 5895 5894 5893 5892 5891 5891 5889 5889 5888 5887 5886 5885 5884 5883 5883 5883 5883 5883
5947 5947 5948 5948 5949 5950 5950 5951 5952 5952 5952 5953 5952 5952 5952 5952 5951 5951 5949 5948 5948 5947 5946 5946 5946 5946 5945 5943 5942 5941 5941 5939 5938 5938 5938 5936 5935 5934 5933 5931 5929 5927 5926 5925 5924 5924 5923 5922 5920 5919 5917 5916 5914 5913 5911 5909 5908 5906 5905 5904 5903 5901 5900 5899 5898 5897 5896 5895 5894 5893 5892 5891 5890 5889 5888 5887 5887 5886 5885 5884 5883 5882 5882 5881 5881 5881
5946 5946 5946 5948 5948 5949 5950 5951 5952 5952 5952 5952 5952 5951 5952 5952 5950 5951 5950 5948 5947 5945 5944 5945 5945 5944 5943 5942 5941 5940 5940 5939 5938 5937 5936 5935 5934 5932 5931 5930 5928 5926 5924 5923 5923 5922 5922 5921 5919 5917 5916 5914 5913 5912 5910 5908 5906 5905 5904 5903 5901 5900 5899 5898 5897 5896 5895 5894 5893 5892 5891 5890 5889 5888 5887 5886 5885 5885 5884 5883 5882 5881 5880 5880 5879 5879
5946 5947 5946 5946 5947 5948 5949 5950 5951 5951 5951 5951 5951 5951 5951 5951 5949 5949 5949 5947 5947 5944 5943 5943 5942 5942 5941 5940 5940 5939 5938 5938 5936 5935 5935 5933 5932 5931 5929 5928 5926 5924 5923 5922 5921 5921 5920 5919 5918 5916 5914 5913 5912 5910 5909 5907 5905 5904 5902 5901 5900 5899 5898 5897 5895 5894 5893 5892 5891 5890 5890 5889 5888 5887 5886 5884 5883 5882 5882 5881 5880 5879 5878 5877 5877 5876
5944 5945 5944 5944 5946 5947 5948 5948 5949 5950 5951 5950 5949 5949 5949 5949 5947 5947 5946 5945 5944 5943 5942 5941 5940 5939 5939 5938 5938 5937 5937 5936 5935 5934 5933 5931 5930 5929 5928 5926 5924 5922 5921 5920 5920 5919 5919 5917 5916 5914 5913 5911 5909 5908 5907 5905 5903 5902 5901 5900 5898 5897 5896 5895 5894 5893 5891 5890 5889 5888 5887 5887 5886 5885 5883 5882 5881 5880 5879 5878 5878 5877 5876 5875 5874 5873
5943 5943 5942 5944 5945 5945 5946 5947 5947 5949 5950 5949 5948 5948 5947 5947 5945 5945 5944 5943 5942 5942 5941 5939 5938 5937 5936 5935 5935 5935 5934 5934 5933 5932 5931 5929 5928 5927 5926 5924 5922 5920 5919 5918 5918 5917 5916 5915 5914 5912 5911 5909 5907 5906 5904 5903 5901 5900 5898 5897 5896 5895 5894 5892 5891 5890 5889 5888 5887 5886 5885 5884 5883 5882 5881 5880 5879 5878 5877 5876 5875 5874 5874 5873 5872 5871
5942 5942 5941 5942 5944 5944 5945 5946 5946 5947 5947 5947 5947 5946 5945 5945 5944 5943 5943 5942 5941 5940 5939 5937 5937 5936 5933 5931 5932 5932 5932 5931 5931 5929 5928 5927 5926 5925 5924 5922 5920 5918 5917 5916 5916 5915 5914 5913 5912 5910 5909 5907 5905 5903 5902 5900 5899 5897 5896 5895 5893 5892 5891 5890 5889 5888 5887 5886 5885 5884 5883 5882 5881 5880 5879 5878 5877 5876 5875 5874 5873 5872 5871 5871 5870 5869
5939 5940 5940 5941 5943 5943 5944 5945 5946 5945 5945 5946 5945 5944 5943 5943 5943 5942 5941 5941 5940 5939 5938 5936 5935 5934 5932 5930 5930 5930 5929 5929 5928 5927 5926 5925 5924 5923 5922 5920 5918 5917 5916 5914 5914 5913 5912 5911 5910 5908 5907 5905 5903 5901 5900 5898 5896 5895 5893 5892 5891 5890 5889 5887 5886 5885 5884 5883 5882 5881 5880 5879 5878 5877 5877 5876 5875 5874 5872 5871 5871 5870 5869 5868 5867 5867
5938 5940 5940 5940 5941 5942 5943 5944 5945 5944 5943 5944 5943 5942 5941 5941 5941 5940 5939 5938 5938 5937 5936 5935 5933 5931 5930 5929 5928 5927 5927 5926 5926 5925 5924 5923 5922 5920 5919 5918 5917 5916 5914 5913 5911 5910 5909 5908 5907 5906 5904 5902 5901 5899 5898 5896 5894 5893 5891 5890 5889 5888 5886 5885 5884 5883 5881 5880 5880 5879 5877 5876 5876 5875 5874 5873 5872 5871 5869 5868 5868 5867 5866 5865 5864 5863
5937 5939 5939 5939 5940 5942 5942 5941 5942 5942 5942 5942 5942 5940 5939 5938 5938 5937 5936 5935 5935 5935 5933 5932 5931 5928 5927 5927 5926 5924 5924 5924 5923 5922 5921 5920 5919 5918 5917 5916 5915 5913 5912 5911 5909 5908 5906 5905 5904 5903 5901 5900 5898 5896 5895 5894 5892 5891 5889 5887 5886 5885 5884 5883 5882 5880 5879 5878 5877 5876 5875 5874 5873 5872 5871 5870 5869 5867 5866 5865 5864 5863 5863 5862 5861 5860
5936 5938 5939 5939 5940 5941 5939 5939 5940 5940 5940 5940 5940 5939 5938 5937 5935 5935 5934 5933 5932 5932 5931 5930 5928 5926 5925 5925 5924 5923 5922 5921 5921 5920 5919 5918 5917 5915 5914 5913 5912 5911 5910 5908 5906 5905 5903 5902 5901 5900 5898 5897 5895 5893 5892 5891 5889 5888 5887 5885 5884 5882 5881 5880 5879 5877 5876 5875 5873 5872 5871 5870 5869 5868 5867 5866 5865 5864 5863 5862 5861 5860 5859 5858 5858 5857
5935 5937 5938 5938 5938 5937 5937 5938 5938 5938 5938 5937 5937 5936 5936 5935 5934 5933 5933 5931 5930 5929 5928 5927 5926 5923 5923 5923 5922 5921 5920 5919 5918 5917 5916 5915 5914 5913 5912 5910 5909 5908 5907 5905 5904 5902 5900 5899 5898 5897 5895 5893 5892 5890 5889 5888 5886 5885 5884 5883 5881 5880 5879 5877 5876 5875 5873 5872 5870 5869 5867 5866 5865 5864 5863 5862 5861 5860 5859 5858 5857 5857 5855 5854 5854 5853
5934 5935 5936 5936 5935 5935 5935 5936 5936 5936 5936 5934 5934 5933 5933 5932 5931 5931 5930 5929 5928 5927 5925 5925 5924 5921 5921 5921 5920 5919 5918 5916 5915 5914 5913 5912 5911 5910 5909 5908 5907 5906 5904 5903 5901 5899 5898 5896 5895 5893 5891 5890 5888 5888 5887 5886 5884 5882 5881 5880 5879 5878 5876 5875 5873 5872 5870 5869 5867 5865 5863 5862 5860 5859 5858 5858 5857 5856 5855 5854 5853 5852 5852 5851 5850 5849
5933 5934 5934 5934 5934 5934 5934 5933 5933 5933 5933 5932 5932 5931 5930 5930 5929 5928 5927 5925 5925 5924 5923 5923 5921 5919 5919 5919 5917 5916 5915 5914 5912 5910 5909 5908 5907 5907 5906 5905 5905 5903 5902 5900 5899 5897 5895 5893 5891 5890 5888 5886 5885 5885 5884 5882 5881 5880 5878 5877 5876 5875 5874 5872 5871 5869 5867 5865 5864 5862 5860 5858 5856 5854 5853 5853 5853 5852 5850 5849 5848 5847 5846 5846 5846 5845
5932 5932 5932 5932 5932 5932 5932 5932 5931 5930 5930 5930 5929 5929 5928 5927 5926 5925 5924 5923 5922 5921 5920 5919 5917 5916 5916 5916 5914 5913 5911 5910 5908 5906 5905 5904 5903 5903 5902 5902 5901 5900 5899 5897 5895 5893 5892 5890 5888 5887 5885 5883 5881 5880 5879 5878 5877 5876 5875 5874 5873 5871 5870 5868 5867 5865 5863 5861 5860 5858 5856 5854 5852 5851 5849 5848 5848 5847 5846 5845 5843 5842 5841 5841 5840 5840
5930 5930 5931 5930 5930 5930 5930 5930 5930 5929 5929 5928 5927 5927 5926 5925 5924 5923 5922 5920 5918 5918 5918 5916 5914 5913 5912 5912 5910 5908 5907 5906 5904 5902 5900 5898 5897 5897 5898 5898 5897 5896 5896 5894 5892 5891 5889 5887 5885 5883 5881 5880 5878 5877 5875 5874 5873 5872 5871 5869 5868 5867 5865 5864 5862 5860 5859 5857 5855 5853 5851 5849 5848 5847 5846 5844 5843 5842 5841 5840 5839 5837 5836 5835 5835 5835
5928 5928 5929 5929 5929 5928 5928 5928 5928 5928 5927 5926 5925 5925 5923 5922 5922 5920 5919 5917 5916 5916 5915 5913 5911 5910 5908 5907 5905 5904 5904 5904 5902 5901 5899 5897 5895 5893 5893 5893 5893 5892 5892 5891 5889 5888 5886 5884 5882 5880 5878 5876 5874 5873 5871 5870 5869 5868 5866 5865 5863 5862 5860 5859 5857 5855 5854 5852 5850 5849 5847 5845 5843 5842 5841 5840 5838 5837 5836 5835 5834 5833 5831 5830 5829 5829
5926 5926 5927 5927 5927 5927 5927 5926 5926 5925 5925 5924 5923 5922 5921 5920 5919 5918 5917 5915 5914 5913 5912 5910 5909 5907 5904 5903 5902 5902 5903 5901 5900 5899 5898 5896 5895 5892 5890 5891 5891 5890 5889 5888 5886 5885 5883 5881 5879 5876 5874 5872 5871 5869 5868 5866 5865 5863 5861 5859 5858 5856 5854 5853 5851 5849 5848 5846 5845 5843 5842 5840 5838 5837 5835 5834 5833 5831 5830 5829 5828 5827 5826 5825 5824 5823
5924 5924 5925 5925 5925 5925 5924 5924 5923 5923 5922 5921 5920 5919 5918 5917 5916 5915 5914 5912 5911 5910 5908 5907 5906 5904 5902 5900 5899 5899 5899 5897 5896 5895 5893 5892 5891 5890 5889 5889 5888 5887 5886 5885 5883 5881 5879 5877 5875 5873 5870 5869 5867 5866 5864 5862 5860 5858 5856 5855 5853 5851 5849 5847 5845 5843 5842 5841 5839 5838 5836 5834 5833 5831 5830 5828 5827 5826 5824 5823 5822 5821 5820 5819 5818 5817
5922 5922 5923 5923 5922 5921 5921 5921 5920 5920 5918 5917 5917 5916 5915 5914 5912 5911 5910 5909 5908 5907 5905 5904 5903 5902 5899 5896 5895 5896 5896 5894 5894 5894 5891 5889 5887 5887 5887 5886 5885 5884 5882 5880 5879 5877 5875 5873 5871 5869 5867 5865 5863 5862 5860 5858 5856 5854 5852 5850 5848 5846 5844 5842 5840 5838 5836 5834 5833 5832 5830 5828 5827 5825 5824 5822 5821 5820 5818 5817 5816 5815 5814 5813 5812 5811
5920 5920 5920 5921 5919 5917 5918 5918 5917 5916 5915 5913 5913 5913 5911 5910 5909 5908 5907 5906 5905 5904 5903 5901 5899 5898 5895 5892 5893 5895 5893 5892 5892 5890 5888 5887 5885 5885 5884 5882 5881 5880 5878 5877 5875 5873 5871 5869 5867 5865 5862 5860 5858 5856 5854 5853 5851 5849 5847 5845 5842 5840 5838 5836 5834 5832 5830 5828 5826 5825 5824 5822 5821 5819 5818 5816 5815 5813 5812 5811 5810 5809 5808 5807 5806 5805
5918 5918 5917 5918 5917 5914 5914 5915 5913 5912 5912 5909 5909 5909 5908 5906 5906 5905 5904 5903 5901 5901 5900 5898 5896 5894 5892 5890 5891 5892 5891 5889 5888 5886 5885 5884 5882 5881 5880 5879 5877 5876 5874 5872 5870 5868 5866 5863 5861 5859 5857 5855 5853 5851 5849 5847 5845 5843 5841 5839 5837 5835 5833 5831 5829 5826 5824 5822 5820 5818 5817 5816 5814 5813 5811 5810 5808 5807 5806 5804 5803 5802 5801 5801 5800 5799
5916 5915 5914 5915 5915 5912 5911 5911 5910 5909 5909 5907 5906 5906 5904 5903 5902 5901 5900 5899 5898 5898 5897 5896 5894 5892 5891 5889 5888 5887 5887 5886 5884 5883 5882 5880 5879 5877 5876 5875 5873 5872 5870 5868 5865 5863 5860 5858 5856 5853 5851 5849 5847 5845 5843 5841 5839 5837 5835 5833 5831 5829 5827 5825 5823 5820 5818 5816 5814 5812 5810 5809 5808 5806 5805 5804 5802 5800 5799 5798 5796 5795 5794 5794 5793 5792
5913 5912 5912 5912 5912 5910 5908 5908 5907 5906 5905 5904 5903 5902 5901 5900 5899 5898 5897 5896 5895 5895 5894 5893 5892 5890 5889 5887 5885 5884 5882 5881 5880 5879 5877 5875 5874 5873 5872 5870 5868 5867 5865 5862 5860 5857 5855 5853 5850 5848 5846 5844 5841 5839 5837 5835 5832 5830 5828 5826 5824 5822 5820 5818 5816 5814 5812 5810 5808 5806 5804 5802 5800 5799 5798 5797 5796 5794 5793 5791 5790 5789 5788 5787 5786 5785
5909 5909 5909 5909 5908 5907 5906 5905 5904 5903 5901 5901 5900 5899 5898 5897 5896 5895 5895 5893 5892 5892 5891 5890 5889 5888 5886 5885 5883 5881 5880 5878 5876 5874 5872 5871 5870 5868 5867 5865 5863 5861 5859 5856 5854 5851 5849 5847 5845 5842 5840 5838 5835 5833 5831 5828 5826 5823 5821 5819 5817 5815 5813 5811 5809 5807 5805 5803 5801 5799 5797 5795 5793 5792 5790 5789 5788 5787 5786 5785 5783 5782 5780 5779 5778 5777
5906 5906 5906 5905 5905 5905 5903 5902 5901 5900 5899 5898 5897 5896 5896 5895 5894 5893 5892 5891 5890 5889 5888 5888 5886 5885 5884 5882 5881 5879 5877 5875 5872 5870 5868 5867 5865 5864 5862 5860 5858 5855 5853 5850 5848 5846 5843 5841 5839 5837 5834 5832 5829 5827 5824 5822 5819 5817 5815 5813 5810 5808 5806 5804 5802 5800 5798 5796 5794 5792 5790 5788 5787 5785 5783 5781 5780 5779 5778 5778 5776 5775 5773 5772 5771 5770
5903 5903 5902 5902 5902 5901 5901 5900 5899 5898 5897 5896 5895 5894 5893 5893 5892 5891 5889 5888 5887 5886 5886 5885 5884 5882 5881 5880 5878 5876 5874 5872 5868 5865 5864 5862 5860 5858 5856 5854 5852 5850 5847 5845 5842 5840 5838 5835 5833 5830 5828 5826 5823 5821 5818 5816 5813 5811 5809 5806 5804 5802 5800 5798 5796 5794 5791 5789 5787 5785 5783 5782 5780 5778 5776 5774 5773 5772 5771 5770 5769 5768 5767 5765 5763 5762
5900 5900 5900 5900 5899 5898 5898 5898 5897 5895 5894 5893 5892 5892 5891 5890 5889 5888 5887 5885 5885 5884 5883 5882 5881 5879 5878 5876 5874 5872 5871 5868 5865 5862 5860 5858 5856 5854 5852 5849 5847 5844 5842 5839 5837 5834 5832 5829 5826 5824 5822 5820 5817 5815 5812 5810 5807 5805 5802 5800 5798 5795 5793 5791 5789 5787 5785 5783 5781 5779 5777 5775 5774 5772 5770 5768 5767 5765 5764 5763 5763 5762 5760 5759 5756 5755
5897 5897 5897 5897 5896 5896 5896 5895 5894 5893 5892 5891 5890 5889 5888 5887 5887 5886 5884 5882 5882 5881 5880 5879 5877 5876 5874 5873 5871 5868 5866 5865 5862 5859 5856 5854 5852 5850 5847 5845 5842 5839 5836 5834 5831 5829 5826 5824 5821 5818 5816 5814 5811 5809 5806 5803 5801 5798 5796 5794 5791 5789 5787 5785 5783 5781 5779 5777 5775 5774 5771 5769 5767 5766 5764 5762 5761 5759 5758 5757 5755 5755 5754 5752 5750 5748
5894 5894 5895 5895 5894 5894 5893 5893 5891 5890 5890 5889 5887 5887 5886 5885 5884 5883 5881 5880 5879 5878 5876 5875 5873 5872 5870 5868 5866 5864 5862 5860 5857 5855 5852 5850 5847 5845 5842 5840 5837 5835 5832 5829 5827 5824 5821 5818 5816 5813 5811 5808 5805 5802 5800 5797 5794 5792 5790 5787 5785 5783 5781 5779 5777 5775 5773 5771 5769 5768 5766 5764 5762 5760 5758 5756 5755 5753 5752 5750 5749 5747 5746 5745 5743 5742
5892 5892 5892 5892 5892 5891 5891 5890 5889 5888 5887 5886 5885 5884 5884 5882 5881 5879 5878 5877 5875 5874 5872 5871 5869 5867 5866 5864 5862 5859 5857 5855 5852 5850 5847 5845 5842 5839 5837 5834 5832 5829 5826 5824 5821 5819 5816 5813 5810 5807 5804 5801 5799 5796 5793 5790 5788 5785 5783 5781 5779 5776 5775 5773 5771 5769 5767 5765 5763 5762 5760 5758 5756 5755 5753 5751 5749 5748 5746 5744 5742 5741 5740 5738 5737 5736
5890 5890 5889 5889 5889 5888 5888 5887 5886 5885 5885 5884 5883 5882 5881 5879 5878 5876 5875 5873 5871 5869 5867 5866 5864 5862 5861 5859 5857 5854 5852 5849 5847 5844 5841 5839 5836 5833 5831 5828 5826 5823 5820 5817 5815 5812 5809 5806 5803 5800 5798 5795 5792 5789 5787 5784 5782 5779 5777 5775 5773 5771 5769 5767 5765 5763 5761 5760 5758 5757 5755 5753 5751 5750 5748 5746 5745 5743 5741 5739 5737 5736 5734 5733 5731 5730
5887 5887 5887 5886 5886 5886 5885 5884 5883 5883 5882 5881 5880 5879 5877 5876 5874 5873 5871 5869 5867 5865 5863 5862 5860 5858 5856 5853 5851 5849 5846 5844 5841 5838 5836 5833 5831 5828 5825 5822 5819 5817 5814 5811 5808 5805 5802 5800 5797 5794 5791 5789 5786 5783 5781 5779 5777 5774 5772 5770 5768 5766 5764 5762 5760 5758 5757 5755 5753 5752 5750 5749 5747 5745 5744 5742 5740 5738 5736 5735 5733 5731 5730 5728 5727 5726
5885 5885 5885 5884 5884 5884 5882 5881 5881 5880 5879 5878 5877 5875 5874 5872 5871 5869 5867 5865 5863 5861 5860 5858 5856 5853 5851 5848 5846 5843 5841 5839 5836 5834 5831 5828 5826 5822 5819 5816 5813 5810 5807 5804 5801 5799 5796 5794 5791 5789 5786 5784 5781 5779 5777 5775 5772 5770 5767 5765 5763 5761 5759 5757 5756 5754 5752 5751 5749 5748 5746 5744 5743 5741 5739 5738 5736 5734 5733 5731 5728 5727 5726 5724 5722 5721
5883 5883 5883 5882 5882 5881 5880 5879 5878 5877 5876 5874 5873 5872 5870 5869 5867 5865 5863 5861 5859 5857 5855 5853 5851 5849 5846 5844 5841 5839 5837 5834 5832 5829 5826 5822 5820 5817 5814 5811 5808 5805 5802 5799 5796 5794 5791 5789 5787 5784 5782 5780 5777 5775 5773 5770 5768 5765 5763 5761 5759 5757 5755 5753 5752 5750 5749 5747 5745 5744 5742 5740 5739 5737 5735 5733 5732 5730 5728 5727 5725 5723 5721 5720 5718 5716
5882 5881 5881 5880 5879 5878 5877 5876 5875 5874 5872 5871 5870 5868 5867 5865 5863 5862 5860 5858 5856 5854 5851 5849 5847 5845 5843 5840 5838 5835 5832 5829 5827 5824 5820 5817 5814 5812 5809 5806 5803 5800 5798 5795 5792 5790 5787 5785 5783 5780 5778 5775 5773 5771 5768 5766 5763 5761 5758 5756 5754 5752 5751 5749 5748 5746 5745 5743 5742 5740 5738 5737 5735 5733 5732 5730 5728 5726 5724 5722 5721 5719 5718 5716 5714 5712
5880 5879 5878 5878 5877 5876 5875 5874 5872 5871 5869 5868 5866 5865 5863 5861 5860 5858 5856 5854 5852 5850 5848 5846 5844 5841 5839 5836 5833 5830 5827 5825 5821 5818 5815 5812 5809 5807 5804 5801 5799 5796 5793 5791 5788 5786 5783 5781 5779 5776 5774 5772 5770 5767 5765 5762 5760 5757 5754 5752 5750 5748 5746 5745 5744 5743 5741 5740 5738 5736 5734 5733 5731 5729 5728 5726 5724 5723 5721 5719 5717 5715 5714 5712 5710 5708
5877 5877 5876 5875 5874 5873 5872 5871 5869 5867 5866 5865 5863 5861 5860 5858 5856 5854 5853 5851 5849 5847 5844 5842 5840 5837 5834 5831 5829 5825 5822 5819 5816 5813 5810 5807 5805 5802 5800 5797 5795 5792 5790 5787 5785 5782 5780 5778 5776 5773 5771 5769 5767 5765 5762 5760 5757 5755 5752 5749 5747 5745 5743 5742 5741 5739 5738 5736 5734 5732 5731 5729 5727 5726 5724 5722 5720 5719 5717 5715 5713 5711 5710 5708 5707 5705
5875 5874 5873 5872 5871 5870 5869 5867 5866 5864 5863 5861 5860 5858 5856 5855 5853 5851 5849 5847 5845 5843 5841 5838 5835 5832 5829 5826 5823 5820 5817 5814 5811 5809 5806 5804 5802 5799 5796 5794 5791 5789 5786 5784 5782 5779 5777 5775 5773 5771 5769 5767 5765 5763 5760 5758 5755 5753 5750 5748 5745 5743 5742 5740 5738 5736 5734 5733 5731 5729 5727 5726 5724 5722 5720 5719 5717 5715 5713 5711 5709 5708 5706 5705 5703 5701
5873 5872 5871 5870 5868 5867 5866 5864 5863 5861 5860 5858 5856 5855 5853 5851 5850 5847 5845 5843 5841 5839 5836 5833 5830 5827 5824 5821 5818 5815 5813 5810 5807 5805 5803 5801 5798 5796 5793 5791 5788 5786 5783 5781 5779 5777 5775 5772 5770 5769 5767 5765 5763 5761 5758 5756 5753 5751 5749 5746 5744 5742 5740 5738 5736 5734 5732 5730 5728 5726 5724 5723 5721 5719 5717 5715 5714 5712 5710 5707 5705 5704 5702 5701 5699 5698